Theta_e
319 322 323 322 321 319 318 318 319 321 322 322 322 323 322 321 320 319 319 320 320 320
315 318 318 321 321 320 319 320 319 318 317 321 320 315 314 314 314 314 314 313 313 314
313 316 316 318 318 319 320 320 320 317 316 315 315 315 314 313 314 313 312 312 310 307
312 314 315 315 317 318 318 319 319 320 320 318 314 313 313 311 313 312 309 309 307 304
312 313 313 315 316 317 317 317 316 318 308 306 306 305 306 310 310 307 305 305 303 302
313 314 314 314 315 316 312 307 307 306 305 304 305 304 305 308 307 304 303 301 298 296
311 312 313 314 313 307 304 302 303 302 302 303 304 305 305 307 304 303 301 300 298 297
310 312 313 312 306 305 304 303 302 301 301 302 304 305 306 306 304 302 300 300 299 297
309 311 308 306 303 301 300 299 299 298 299 299 301 303 306 304 301 300 298 294 293 294
310 309 308 305 302 299 297 297 296 296 297 296 297 300 301 300 298 296 293 291 290 291
309 308 308 304 300 297 297 296 295 295 295 294 295 297 298 297 294 292 291 290 288 287
304 303 303 304 300 298 296 295 295 295 293 291 292 296 296 294 292 291 291 291 288 288
301 299 299 301 301 300 298 295 294 292 292 295 291 295 295 293 290 288 290 291 291 294
296 295 296 299 299 295 294 294 290 288 288 288 291 291 295 296 294 293 292 292 292 291
Wind_Speed
7 4 4 4 4 4 3 4 3 4 4 5 5 3 1 1 1 3 3 5 3 2
8 9 8 8 5 4 6 3 4 4 2 4 1 1 1 2 3 4 4 4 4 3
8 7 7 7 6 6 7 5 4 3 3 2 3 2 2 3 3 5 3 3 5 5
8 8 8 7 9 6 6 7 6 4 1 1 5 5 4 4 3 5 6 7 9 9
7 7 8 10 10 10 8 4 4 4 12 11 9 9 9 7 6 8 9 9 9 9
13 12 12 11 11 10 8 9 10 11 11 10 7 10 11 11 10 10 10 10 9 7
14 14 13 10 10 11 10 10 11 11 10 9 8 8 10 11 9 8 9 9 10 8
15 14 11 10 12 11 12 12 12 11 10 9 7 4 7 9 7 6 7 8 10 8
14 16 16 14 15 15 14 13 13 13 11 10 7 10 8 9 7 8 6 8 8 7
11 13 12 12 13 13 13 12 13 12 10 10 9 17 14 16 8 8 8 7 6 6
10 10 9 12 11 11 9 10 9 9 10 10 11 18 15 16 9 8 6 6 6 6
11 11 11 9 10 8 8 9 8 8 9 9 10 17 15 10 6 5 6 4 1 5
10 10 9 7 8 7 7 8 7 8 9 16 11 19 16 9 4 4 2 4 5 8
10 9 9 7 7 5 5 6 6 6 6 7 9 8 13 12 5 3 3 4 4 4
Wind_Direction
335 307 297 284 274 269 260 264 270 291 291 295 305 320 21 98 113 122 114 119 127 114
334 332 329 303 267 274 277 231 214 223 250 279 316 334 149 166 134 108 98 106 110 106
321 322 321 321 297 265 271 287 271 204 167 310 285 228 204 194 149 117 109 126 97 73
327 328 326 333 319 287 266 255 260 291 263 82 346 335 318 275 168 110 99 92 92 83
319 328 329 325 323 322 301 310 279 59 70 37 28 20 19 9 79 90 83 71 76 78
344 339 332 330 328 329 45 49 63 65 66 78 37 54 16 46 35 67 83 89 90 86
345 333 330 331 2 50 60 63 65 65 73 64 58 46 67 67 55 49 63 83 84 79
348 343 338 38 47 49 56 52 48 50 42 32 23 10 93 111 97 89 82 76 70 59
0 15 40 53 51 46 37 39 43 33 32 31 22 23 76 86 84 84 68 62 58 45
9 22 56 59 65 62 57 40 38 32 20 31 27 43 66 75 72 76 64 55 44 41
8 13 36 79 71 75 62 54 47 33 24 28 33 41 52 68 67 68 63 55 40 43
17 14 16 48 75 68 68 60 49 40 26 27 32 41 47 54 52 54 51 55 130 55
9 19 19 39 67 69 57 53 45 36 21 36 28 29 33 38 34 45 29 32 20 33
20 25 21 38 71 67 63 51 42 36 18 21 22 16 26 26 27 20 26 31 7 349